| time (UTC) | temp F | wind direction | speed knots | gust knots | rain 1hr in | rain 24hr in | rain mn in | humidity % | barometer mb |
| 20260906140106 | 67 | 0 | 1.7 | 4.3 | 0.00 | 0.00 | 0.00 | 97 | 1019.5 |
| 20260906130605 | 64 | 0 | 1.7 | 2.6 | 0.00 | 0.00 | 0.00 | 97 | 1019.3 |
| 20260906130105 | 64 | 0 | 0.9 | 5.2 | 0.00 | 0.00 | 0.00 | 97 | 1019.2 |
| 20260906120605 | 64 | 0 | 2.6 | 4.3 | 0.00 | 0.00 | 0.00 | 97 | 1018.8 |
| 20260906120105 | 64 | 0 | 2.6 | 7.8 | 0.00 | 0.00 | 0.00 | 97 | 1018.9 |
| 20260906110605 | 63 | 0 | 1.7 | 2.6 | 0.00 | 0.00 | 0.00 | 96 | 1018.0 |
| 20260906110105 | 63 | 0 | 0.9 | 5.2 | 0.00 | 0.00 | 0.00 | 96 | 1018.1 |
| 20260906100605 | 64 | 0 | 3.5 | 7.0 | 0.00 | 0.00 | 0.00 | 95 | 1018.0 |
| 20260906100105 | 64 | 0 | 5.2 | 7.8 | 0.00 | 0.00 | 0.00 | 95 | 1018.1 |
| 20260906090605 | 64 | 0 | 1.7 | 2.6 | 0.00 | 0.00 | 0.00 | 95 | 1017.7 |
| 20260906090105 | 64 | 0 | 0.9 | 4.3 | 0.00 | 0.00 | 0.00 | 94 | 1017.8 |
| 20260906080605 | 64 | 0 | 1.7 | 2.6 | 0.00 | 0.00 | 0.00 | 96 | 1017.7 |
| 20260906080105 | 64 | 0 | 1.7 | 4.3 | 0.00 | 0.00 | 0.00 | 96 | 1017.7 |
| 20260906070605 | 66 | 0 | 1.7 | 5.2 | 0.00 | 0.00 | 0.00 | 92 | 1017.7 |
| 20260906070105 | 66 | 0 | 2.6 | 4.3 | 0.00 | 0.00 | 0.00 | 93 | 1017.5 |
| 20260906060605 | 64 | 0 | 0.0 | 0.0 | 0.00 | 0.00 | 0.00 | 93 | 1017.4 |
| 20260906050605 | 66 | 0 | 0.0 | 0.0 | 0.00 | 0.00 | 0.00 | 89 | 1017.1 |
| 20260906050105 | 66 | 0 | 0.0 | 0.9 | 0.00 | 0.00 | 0.00 | 89 | 1017.0 |
| 20260906040605 | 68 | 0 | 0.0 | 0.0 | 0.00 | 0.00 | 0.00 | 86 | 1016.8 |
| 20260906040105 | 68 | 0 | 0.0 | 2.6 | 0.00 | 0.00 | 0.00 | 86 | 1016.8 |
| 20260906030605 | 69 | 0 | 0.0 | 0.9 | 0.00 | 0.00 | 0.00 | 84 | 1016.4 |
| 20260906030106 | 69 | 0 | 0.9 | 2.6 | 0.00 | 0.00 | 0.00 | 84 | 1016.3 |
| 20260906020605 | 71 | 0 | 2.6 | 5.2 | 0.00 | 0.00 | 0.00 | 86 | 1016.2 |
| 20260906020106 | 71 | 0 | 2.6 | 7.0 | 0.00 | 0.00 | 0.00 | 86 | 1016.1 |
| 20260906010605 | 71 | 0 | 0.0 | 0.0 | 0.00 | 0.00 | 0.00 | 91 | 1015.6 |
| 20260906010105 | 71 | 0 | 0.0 | 0.9 | 0.00 | 0.00 | 0.00 | 91 | 1015.6 |
| 20260906000606 | 73 | 0 | 0.0 | 0.9 | 0.00 | 0.00 | 0.00 | 87 | 1015.6 |
| 20260906000105 | 74 | 0 | 0.0 | 10.4 | 0.00 | 0.00 | 0.00 | 87 | 1015.7 |
| 20260905230604 | 75 | 0 | 2.6 | 4.3 | 0.00 | 0.00 | 0.00 | 86 | 1015.8 |
| 20260905230111 | 75 | 0 | 2.6 | 7.8 | 0.00 | 0.00 | 0.00 | 86 | 1015.8 |
| 20260905220605 | 74 | 0 | 1.7 | 4.3 | 0.00 | 0.00 | 0.00 | 86 | 1015.3 |
| 20260905220105 | 74 | 0 | 2.6 | 8.7 | 0.00 | 0.00 | 0.00 | 86 | 1015.3 |
| 20260905210604 | 74 | 0 | 5.2 | 7.8 | 0.00 | 0.00 | 0.00 | 88 | 1015.5 |
| 20260905210105 | 74 | 0 | 5.2 | 10.4 | 0.00 | 0.00 | 0.00 | 88 | 1015.4 |
| 20260905200605 | 74 | 0 | 4.3 | 7.0 | 0.00 | 0.00 | 0.00 | 91 | 1015.7 |
| 20260905200105 | 73 | 0 | 4.3 | 8.7 | 0.00 | 0.00 | 0.00 | 90 | 1015.7 |
| 20260905190605 | 72 | 0 | 4.3 | 5.2 | 0.00 | 0.00 | 0.00 | 93 | 1015.6 |
| 20260905190105 | 72 | 0 | 4.3 | 7.8 | 0.00 | 0.00 | 0.00 | 93 | 1015.7 |
| 20260905180604 | 73 | 0 | 3.5 | 7.0 | 0.00 | 0.00 | 0.00 | 91 | 1015.9 |
| 20260905180104 | 73 | 0 | 4.3 | 10.4 | 0.00 | 0.00 | 0.00 | 91 | 1015.9 |
| 20260905170604 | 72 | 0 | 7.0 | 10.4 | 0.00 | 0.00 | 0.00 | 93 | 1015.6 |
| 20260905170104 | 73 | 0 | 4.3 | 10.4 | 0.00 | 0.00 | 0.00 | 93 | 1015.6 |
| 20260905160605 | 72 | 0 | 4.3 | 7.0 | 0.00 | 0.00 | 0.00 | 95 | 1015.8 |
| 20260905160104 | 72 | 0 | 4.3 | 7.8 | 0.00 | 0.00 | 0.00 | 95 | 1015.8 |
| 20260905150604 | 71 | 0 | 5.2 | 7.0 | 0.00 | 0.79 | 0.00 | 96 | 1015.4 |
| 20260905150104 | 71 | 0 | 4.3 | 10.4 | 0.00 | 1.08 | 0.00 | 96 | 1015.4 |